Location: Geroldsau
(48.7259°N, 8.2466°E)
Time: 08:51:20
(UTC+00:00)

Cosmos 2221 - Pass Details

Date: 20 June 2021
Orbit: 591 x 616 km, 82.5° (Epoch: 03 August)

Event Time Altitude Azimuth Distance (km) Brightness Sun altitude
Rises 01:57:29 0° 334° (NNW) 2,863 6.4 -10.5°
Reaches altitude 10° 02:00:30 10° 311° (NW) 1,948 5.2 -10.3°
Maximum altitude 02:02:57 15° 276° (W) 1,632 4.4 -10.0°
Enters shadow 02:05:16 10° 243° (WSW) 1,907 4.5 -9.8°
